Darstellungsparameter: Aktuell verwendete Einstellungen:
Skalierung der Graphiken ... ?
xyx+y,   Skalierungsfaktor:      Skalierung: Modus: x, Faktor: 1
Darstellungszeitraum ... ?
Vom - - bis: - -   Zeitraum: 25.05.2015 - 25.05.2015
Min/Max/Avg-Anzeige ... ?
Zeige MMA aktuell
Zeige MMA Monat
Zeige MMA alles
Zeige --A aktuell
Zeige --A Monat
Zeige --A alles
Keine MMA-Anzeige
MMA:
Average (ber die Originaldaten)
MMA-Basis: 25.05.2015 - 25.05.2015
Quicknavigation für Darstellung... ?
Tage:      1T, 2T, 3T, 5T -1T -2T -3T -5T +1T +2T +3T +5T
Wochen: 1W, 2W, 3W -1W -2W -3W +1W +2W +3W
Monate: 1M, 3M, 6M -1M -3M -6M +1M +3M +6M
Jahre:    1J, 3J, 5J, 10J -1J -3J -5J -10J +1J +3J +5J +10J
Nutze für die Darstellung ... ?
Originaldaten oder Mittelwerte auf ...
Stundenbasis Tagesbasis Wochenbasis
Monatsbasis Jahresbasis      Datenbasis: Original-Daten
Darstellen als:
Statistik (Auto) Statistik J:M      Darstellung:
Zur Graphik,    zurück zur Übersicht aller Sensoren.
 
Tabellarische Datenbersicht: ?
 
Sensor: Nr:Datum:Temp:Abs-Feuchte:Windchill:Wind:
Aussen-T/F 1 25-05-2015 00:00:00 14.3 C 11.55 g/m*3 14.3 C 0 km/h
2 25-05-2015 00:05:00 14.3 C 11.55 g/m*3 14.3 C 0 km/h
3 25-05-2015 00:10:00 14.3 C 11.55 g/m*3 14.3 C 0 km/h
4 25-05-2015 00:15:00 14.2 C 11.6 g/m*3 14.2 C 0 km/h
5 25-05-2015 00:20:00 14.1 C 11.41 g/m*3 14.1 C 0 km/h
6 25-05-2015 00:25:00 13.9 C 11.27 g/m*3 13.9 C 0 km/h
7 25-05-2015 00:30:00 13.9 C 11.27 g/m*3 13.9 C 0 km/h
8 25-05-2015 00:35:00 13.8 C 11.2 g/m*3 13.8 C 0 km/h
9 25-05-2015 00:40:00 13.7 C 11.13 g/m*3 13.7 C 0 km/h
10 25-05-2015 00:45:00 13.5 C 10.99 g/m*3 13.5 C 0 km/h
11 25-05-2015 00:50:00 13.4 C 10.93 g/m*3 13.4 C 1.6 km/h
12 25-05-2015 00:55:00 13.3 C 10.86 g/m*3 13.3 C 0 km/h
13 25-05-2015 01:00:00 13.3 C 10.98 g/m*3 13.3 C 1.6 km/h
14 25-05-2015 01:05:00 13.3 C 10.98 g/m*3 13.3 C 1.6 km/h
15 25-05-2015 01:10:00 13.3 C 10.98 g/m*3 13.3 C 0 km/h
16 25-05-2015 01:15:00 13.3 C 10.98 g/m*3 13.3 C 1.6 km/h
17 25-05-2015 01:20:00 13.3 C 10.98 g/m*3 13.3 C 0 km/h
18 25-05-2015 01:25:00 13.1 C 10.84 g/m*3 13.1 C 0 km/h
19 25-05-2015 01:30:00 13.1 C 10.84 g/m*3 13.1 C 0 km/h
20 25-05-2015 01:35:00 13 C 10.77 g/m*3 13 C 0 km/h
21 25-05-2015 01:40:00 13 C 10.77 g/m*3 13 C 0 km/h
22 25-05-2015 01:45:00 13 C 10.77 g/m*3 13 C 0 km/h
23 25-05-2015 01:50:00 13 C 10.77 g/m*3 13 C 0 km/h
24 25-05-2015 01:55:00 12.8 C 10.64 g/m*3 12.8 C 0 km/h
25 25-05-2015 02:00:00 12.8 C 10.64 g/m*3 12.8 C 0 km/h
Sensor: Nr:Datum:Temp:Abs-Feuchte:Windchill:Wind:
Aussen-T/F 26 25-05-2015 02:05:00 12.8 C 10.64 g/m*3 12.8 C 0 km/h
27 25-05-2015 02:10:00 12.7 C 10.58 g/m*3 12.7 C 0 km/h
28 25-05-2015 02:15:00 12.7 C 10.58 g/m*3 12.7 C 0 km/h
29 25-05-2015 02:20:00 12.6 C 10.51 g/m*3 12.6 C 0 km/h
30 25-05-2015 02:25:00 12.4 C 10.38 g/m*3 12.4 C 0 km/h
31 25-05-2015 02:30:00 12.4 C 10.38 g/m*3 12.4 C 0 km/h
32 25-05-2015 02:35:00 12.3 C 10.32 g/m*3 12.3 C 0 km/h
33 25-05-2015 02:40:00 12.2 C 10.25 g/m*3 12.2 C 0 km/h
34 25-05-2015 02:45:00 12.2 C 10.25 g/m*3 12.2 C 3.2 km/h
35 25-05-2015 02:50:00 12.2 C 10.25 g/m*3 12.2 C 3.2 km/h
36 25-05-2015 02:55:00 12.4 C 10.49 g/m*3 12.4 C 0 km/h
37 25-05-2015 03:00:00 12.4 C 10.49 g/m*3 12.4 C 0 km/h
38 25-05-2015 03:05:00 12.1 C 10.19 g/m*3 12.1 C 0 km/h
39 25-05-2015 03:10:00 12.1 C 10.19 g/m*3 12.1 C 1.6 km/h
40 25-05-2015 03:15:00 11.9 C 10.06 g/m*3 11.9 C 0 km/h
41 25-05-2015 03:20:00 11.8 C 10 g/m*3 11.8 C 1.6 km/h
42 25-05-2015 03:25:00 11.7 C 9.94 g/m*3 11.7 C 1.6 km/h
43 25-05-2015 03:30:00 11.6 C 9.87 g/m*3 11.6 C 0 km/h
44 25-05-2015 03:35:00 11.4 C 9.75 g/m*3 11.4 C 1.6 km/h
45 25-05-2015 03:40:00 11.3 C 9.69 g/m*3 11.3 C 0 km/h
46 25-05-2015 03:45:00 11.2 C 9.63 g/m*3 11.2 C 1.6 km/h
47 25-05-2015 03:50:00 11 C 9.51 g/m*3 11 C 0 km/h
48 25-05-2015 03:55:00 10.9 C 9.45 g/m*3 10.9 C 1.6 km/h
49 25-05-2015 04:00:00 10.8 C 9.39 g/m*3 10.8 C 0 km/h
50 25-05-2015 04:05:00 10.8 C 9.39 g/m*3 10.8 C 1.6 km/h
Sensor: Nr:Datum:Temp:Abs-Feuchte:Windchill:Wind:
Aussen-T/F 51 25-05-2015 04:10:00 10.7 C 9.33 g/m*3 10.7 C 1.6 km/h
52 25-05-2015 04:15:00 10.7 C 9.33 g/m*3 10.7 C 0 km/h
53 25-05-2015 04:20:00 10.6 C 9.27 g/m*3 10.6 C 0 km/h
54 25-05-2015 04:25:00 10.6 C 9.27 g/m*3 10.6 C 1.6 km/h
55 25-05-2015 04:30:00 10.4 C 9.16 g/m*3 10.4 C 1.6 km/h
56 25-05-2015 04:35:00 10.4 C 9.16 g/m*3 10.4 C 0 km/h
57 25-05-2015 04:40:00 10.3 C 9.1 g/m*3 10.3 C 0 km/h
58 25-05-2015 04:45:00 10.2 C 9.04 g/m*3 10.2 C 0 km/h
59 25-05-2015 04:50:00 10.2 C 9.04 g/m*3 10.2 C 0 km/h
60 25-05-2015 04:55:00 10.2 C 9.04 g/m*3 10.2 C 1.6 km/h
61 25-05-2015 10:45:00 15.1 C 9.68 g/m*3 15.1 C 1.6 km/h
62 25-05-2015 10:50:00 15.1 C 9.93 g/m*3 15.1 C 0 km/h
63 25-05-2015 10:55:00 15.1 C 10.06 g/m*3 15.1 C 0 km/h
64 25-05-2015 11:00:00 15.1 C 10.19 g/m*3 15.1 C 0 km/h
65 25-05-2015 11:05:00 15.1 C 9.93 g/m*3 15.1 C 0 km/h
66 25-05-2015 11:10:00 15.2 C 10.12 g/m*3 15.2 C 1.6 km/h
67 25-05-2015 11:15:00 15.2 C 9.99 g/m*3 15.2 C 1.6 km/h
68 25-05-2015 11:20:00 15.3 C 10.32 g/m*3 15.3 C 0 km/h
69 25-05-2015 11:25:00 15.4 C 10.25 g/m*3 15.4 C 1.6 km/h
70 25-05-2015 11:30:00 15.5 C 10.18 g/m*3 15.5 C 4.8 km/h
71 25-05-2015 11:35:00 15.5 C 10.05 g/m*3 15.5 C 4.8 km/h
72 25-05-2015 11:40:00 15.4 C 9.99 g/m*3 15.4 C 3.2 km/h
73 25-05-2015 11:45:00 15.5 C 10.05 g/m*3 15.5 C 4.8 km/h
74 25-05-2015 11:50:00 15.4 C 9.59 g/m*3 15.4 C 9.7 km/h
75 25-05-2015 11:55:00 15.2 C 9.09 g/m*3 15.2 C 8.1 km/h
Sensor: Nr:Datum:Temp:Abs-Feuchte:Windchill:Wind:
Aussen-T/F 76 25-05-2015 12:00:00 15.1 C 9.42 g/m*3 15.1 C 6.4 km/h
77 25-05-2015 12:05:00 14.8 C 9.63 g/m*3 14.8 C 9.7 km/h
78 25-05-2015 12:10:00 14.7 C 9.95 g/m*3 14.7 C 8.1 km/h
79 25-05-2015 12:15:00 14.5 C 9.95 g/m*3 14.5 C 6.4 km/h
80 25-05-2015 12:20:00 14.5 C 9.95 g/m*3 14.5 C 1.6 km/h
81 25-05-2015 12:25:00 14.5 C 9.95 g/m*3 14.5 C 0 km/h
82 25-05-2015 12:30:00 14.5 C 9.95 g/m*3 14.5 C 0 km/h
83 25-05-2015 14:00:00 15.4 C 13.14 g/m*3 15.4 C 3.2 km/h
84 25-05-2015 14:05:00 15.4 C 10.51 g/m*3 15.4 C 3.2 km/h
85 25-05-2015 14:10:00 15.3 C 10.45 g/m*3 15.3 C 1.6 km/h
86 25-05-2015 14:15:00 15.2 C 10.64 g/m*3 15.2 C 1.6 km/h
87 25-05-2015 14:20:00 15.3 C 10.71 g/m*3 15.3 C 3.2 km/h
88 25-05-2015 14:25:00 15.4 C 10.64 g/m*3 15.4 C 1.6 km/h
89 25-05-2015 14:30:00 15.5 C 10.71 g/m*3 15.5 C 0 km/h
90 25-05-2015 14:35:00 15.5 C 10.71 g/m*3 15.5 C 1.6 km/h
91 25-05-2015 15:35:00 15.7 C 11.11 g/m*3 15.7 C 0 km/h
92 25-05-2015 15:40:00 15.6 C 11.3 g/m*3 15.6 C 0 km/h
93 25-05-2015 15:45:00 15.5 C 11.5 g/m*3 15.5 C 0 km/h
94 25-05-2015 15:50:00 15.5 C 11.63 g/m*3 15.5 C 0 km/h
95 25-05-2015 15:55:00 15.5 C 11.37 g/m*3 15.5 C 3.2 km/h
96 25-05-2015 16:00:00 15.6 C 11.44 g/m*3 15.6 C 0 km/h
97 25-05-2015 16:05:00 15.6 C 11.17 g/m*3 15.6 C 1.6 km/h
98 25-05-2015 16:10:00 15.8 C 11.17 g/m*3 15.8 C 0 km/h
99 25-05-2015 16:15:00 15.9 C 10.97 g/m*3 15.9 C 0 km/h
100 25-05-2015 16:20:00 16 C 11.17 g/m*3 16 C 0 km/h
Sensor: Nr:Datum:Temp:Abs-Feuchte:Windchill:Wind:
Aussen-T/F 101 25-05-2015 16:25:00 16.2 C 11.03 g/m*3 16.2 C 0 km/h
102 25-05-2015 16:30:00 16.4 C 11.31 g/m*3 16.4 C 3.2 km/h
103 25-05-2015 16:35:00 16.8 C 11.58 g/m*3 16.8 C 3.2 km/h
104 25-05-2015 16:40:00 17 C 11.43 g/m*3 17 C 4.8 km/h
105 25-05-2015 16:45:00 17.2 C 11.86 g/m*3 17.2 C 6.4 km/h
106 25-05-2015 16:50:00 17.5 C 11.78 g/m*3 17.5 C 4.8 km/h
107 25-05-2015 16:55:00 17.4 C 11.12 g/m*3 17.4 C 3.2 km/h
108 25-05-2015 17:00:00 17.2 C 10.98 g/m*3 17.2 C 1.6 km/h
109 25-05-2015 17:05:00 16.9 C 10.79 g/m*3 16.9 C 1.6 km/h
110 25-05-2015 17:10:00 16.8 C 11.01 g/m*3 16.8 C 0 km/h
111 25-05-2015 17:15:00 16.7 C 11.23 g/m*3 16.7 C 3.2 km/h
112 25-05-2015 17:20:00 16.6 C 11.02 g/m*3 16.6 C 6.4 km/h
113 25-05-2015 17:25:00 16.3 C 11.1 g/m*3 16.3 C 11.3 km/h
114 25-05-2015 17:30:00 15.9 C 10.7 g/m*3 15.9 C 11.3 km/h
115 25-05-2015 17:35:00 15 C 10.9 g/m*3 15 C 0 km/h
116 25-05-2015 17:40:00 14.6 C 11.01 g/m*3 14.6 C 0 km/h
117 25-05-2015 17:45:00 14.4 C 11.13 g/m*3 14.4 C 1.6 km/h
118 25-05-2015 17:50:00 14.3 C 11.18 g/m*3 14.3 C 4.8 km/h
119 25-05-2015 17:55:00 14.3 C 11.18 g/m*3 14.3 C 1.6 km/h
120 25-05-2015 18:00:00 14.4 C 11.37 g/m*3 14.4 C 4.8 km/h
121 25-05-2015 18:05:00 14.4 C 11.37 g/m*3 14.4 C 1.6 km/h
122 25-05-2015 18:10:00 14.3 C 11.06 g/m*3 14.3 C 9.7 km/h
123 25-05-2015 18:15:00 14.2 C 11.11 g/m*3 14.2 C 3.2 km/h
124 25-05-2015 18:20:00 14.3 C 11.3 g/m*3 14.3 C 1.6 km/h
125 25-05-2015 18:25:00 14.4 C 11.37 g/m*3 14.4 C 3.2 km/h
Sensor: Nr:Datum:Temp:Abs-Feuchte:Windchill:Wind:
Aussen-T/F 126 25-05-2015 18:30:00 14.5 C 11.32 g/m*3 14.5 C 3.2 km/h
127 25-05-2015 18:35:00 14.9 C 11.73 g/m*3 14.9 C 1.6 km/h
128 25-05-2015 18:40:00 15.5 C 12.03 g/m*3 15.5 C 0 km/h
129 25-05-2015 18:45:00 15.9 C 12.19 g/m*3 15.9 C 0 km/h
130 25-05-2015 18:50:00 16.3 C 12.07 g/m*3 16.3 C 6.4 km/h
131 25-05-2015 18:55:00 16.2 C 11.86 g/m*3 16.2 C 9.7 km/h
132 25-05-2015 19:00:00 16 C 11.58 g/m*3 16 C 3.2 km/h
133 25-05-2015 19:05:00 16 C 11.58 g/m*3 16 C 3.2 km/h
134 25-05-2015 19:10:00 16 C 11.58 g/m*3 16 C 1.6 km/h
135 25-05-2015 19:15:00 16 C 11.58 g/m*3 16 C 0 km/h
136 25-05-2015 22:05:00 11.7 C 9.83 g/m*3 11.7 C 1.6 km/h
137 25-05-2015 22:10:00 11.7 C 9.83 g/m*3 11.7 C 0 km/h
138 25-05-2015 22:15:00 11.6 C 9.77 g/m*3 11.6 C 1.6 km/h
139 25-05-2015 22:20:00 11.6 C 9.77 g/m*3 11.6 C 6.4 km/h
140 25-05-2015 22:25:00 11.6 C 9.67 g/m*3 11.6 C 8.1 km/h
141 25-05-2015 22:30:00 11.6 C 9.67 g/m*3 11.6 C 3.2 km/h
142 25-05-2015 22:50:00 11.9 C 9.64 g/m*3 11.9 C 6.4 km/h
143 25-05-2015 22:55:00 12.1 C 9.44 g/m*3 12.1 C 8.1 km/h
144 25-05-2015 23:00:00 12.3 C 9.66 g/m*3 12.3 C 1.6 km/h
145 25-05-2015 23:05:00 12.4 C 9.51 g/m*3 12.4 C 4.8 km/h
146 25-05-2015 23:10:00 12.6 C 9.29 g/m*3 12.6 C 11.3 km/h
147 25-05-2015 23:15:00 12.7 C 9.57 g/m*3 12.7 C 3.2 km/h
148 25-05-2015 23:20:00 12.6 C 9.4 g/m*3 12.6 C 3.2 km/h
149 25-05-2015 23:25:00 12.6 C 9.51 g/m*3 12.6 C 6.4 km/h
150 25-05-2015 23:30:00 12.4 C 9.29 g/m*3 12.4 C 4.8 km/h
Sensor: Nr:Datum:Temp:Abs-Feuchte:Windchill:Wind:
Aussen-T/F 151 25-05-2015 23:35:00 12.4 C 9.51 g/m*3 12.4 C 3.2 km/h
152 25-05-2015 23:40:00 12.3 C 9.56 g/m*3 12.3 C 1.6 km/h
153 25-05-2015 23:45:00 12.1 C 9.44 g/m*3 12.1 C 4.8 km/h
154 25-05-2015 23:50:00 12 C 9.17 g/m*3 12 C 9.7 km/h
155 25-05-2015 23:55:00 12 C 9.38 g/m*3 12 C 4.8 km/h

Legende:
   Min
   Max


Maximal/Minimal-Werte vom 25.05.2015 - 25.05.2015

Sensor Min Max Avg
Temp
(Aussen-T/F)
10.2 °C
25-05-2015  04:45:00
17.5 °C
25-05-2015  16:50:00
13.83 °C
Abs-Feuchte
(Aussen-T/F)
9.04 g/m*3
25-05-2015  04:45:00
13.14 g/m*3
25-05-2015  14:00:00
10.43 g/m*3
Windchill
(Aussen-T/F)
10.2 C
25-05-2015  04:45:00
17.5 C
25-05-2015  16:50:00
13.74 C

Die Daten stammen von einer Davis Vantage Pro 2 Wetter-Station und werden unter Linux mit der Software wview2wettercgi und aufbereitet. Alle Angaben erfolgen ohne Gewähr für ihre Vollständigkeit oder Richtigkeit.
Kontakt: Rainer Krienke krienke@uni-koblenz.de . Meine Webseiten an der Uni Koblenz oder privat.
Version: $Revision: 0.78 $